{"data":{"norad_id":62032,"epoch":"2026-05-25T03:34:32.394720Z","epoch_age_seconds":61383,"freshness":"FRESH","line1":"1 62032U 24216A   26145.14898605  .00008734  00000+0  32643-3 0  9999","line2":"2 62032  43.0008 184.1323 0001123 272.2565  87.8158 15.27590945 85577","mean_motion":15.27590945,"eccentricity":0.0001123,"inclination_deg":43.0008,"raan_deg":184.1323,"arg_perigee_deg":272.2565,"mean_anomaly_deg":87.8158,"bstar":0.00032643,"rev_number":8557,"period_min":94.266073304068,"perigee_km":482.24581544972,"apogee_km":483.78683048606,"semimajor_km":6861.1533229679,"source":"CELESTRAK","updated_at":"2026-05-25T13:38:19.523255Z"}}